This demonstration page uses our WeatherBlox Daily Observations layout. Learn more.

38.88101, -77.10428

Hourly Observations for November 8, 2016

Temp ( °F °C ) Dew Point ( °F °C ) Humidity (%) Winds ( mph kmh ) Pressure ( in mb ) Visibility ( mi km ) Precip ( " mm )
12:52 am 00:52 Clear 44 6.7 38 3.3 79 79 WSW 3 6 30.36 1028 9 14.484096 0 0
1:52 am 01:52 Clear 43 6.1 38 3.3 82 82 WSW 3 6 30.33 1027 7 11.265408 0 0
2:52 am 02:52 Clear 42 5.6 38 3.3 85 85 Calm 30.33 1027 10 16.09344 0 0
3:52 am 03:52 Clear 42 5.6 37 2.8 82 82 W 3 6 30.3 1026 10 16.09344 0 0
4:52 am 04:52 Clear 43 6.1 36 2.2 76 76 Calm 30.3 1026 10 16.09344 0 0
5:52 am 05:52 Clear 42 5.6 37 2.8 82 82 Calm 30.3 1026 10 16.09344 0 0
6:52 am 06:52 Mostly Sunny 41 5 37 2.8 86 86 SW 3 6 30.27 1025 10 16.09344 0 0
7:52 am 07:52 Mostly Sunny 44 6.7 40 4.4 85 85 S 3 6 30.27 1025 10 16.09344 0 0
8:52 am 08:52 Mostly Sunny 49 9.4 37 2.8 64 64 SSE 3 6 30.27 1025 10 16.09344 0 0
9:52 am 09:52 Mostly Sunny 53 11.7 39 3.9 59 59 SE 5 7 30.27 1025 10 16.09344 0 0
10:52 am 10:52 Mostly Sunny 59 15 39 3.9 48 48 S 7 11 30.24 1024 10 16.09344 0 0
11:52 am 11:52 Mostly Cloudy 63 17.2 40 4.4 43 43 S 8 13 30.21 1023 10 16.09344 0 0
12:52 pm 12:52 Cloudy 67 19.4 38 3.3 35 35 S 9 15 30.18 1022 10 16.09344 0 0
1:52 pm 13:52 Cloudy 67 19.4 41 5 39 39 S 12 19 30.12 1020 10 16.09344 0 0
2:52 pm 14:52 Mostly Cloudy 66 18.9 41 5 40 40 S 8 13 30.12 1020 10 16.09344 0 0
3:52 pm 15:52 Mostly Cloudy 63 17.2 46 7.8 54 54 S 9 15 30.09 1019 10 16.09344 0 0
4:52 pm 16:52 Mostly Cloudy 62 16.7 38 3.3 41 41 SSW 5 7 30.09 1019 10 16.09344 0 0
5:52 pm 17:52 Mostly Cloudy 59 15 44 6.7 58 58 SSW 7 11 30.06 1018 10 16.09344 0 0
6:52 pm 18:52 Mostly Cloudy 59 15 44 6.7 58 58 SSW 6 9 30.06 1018 10 16.09344 0 0
7:52 pm 19:52 Mostly Cloudy 58 14.4 47 8.3 67 67 S 6 9 30.06 1018 10 16.09344 0 0
8:52 pm 20:52 Mostly Cloudy 57 13.9 48 8.9 72 72 S 7 11 30.03 1017 10 16.09344 0 0
9:52 pm 21:52 Mostly Cloudy 57 13.9 48 8.9 72 72 S 7 11 30.03 1017 10 16.09344 0 0
10:52 pm 22:52 Cloudy 56 13.3 47 8.3 72 72 S 6 9 30 1016 10 16.09344 0 0
11:52 pm 23:52 Cloudy 57 13.9 48 8.9 72 72 S 5 7 29.97 1015 10 16.09344 0 0

Powered by AerisWeather